STARLINK-11244 [DTC]

Last updated on Tue Oct 01 2024 00:02:04 GMT+0000 (Coordinated Universal Time)

1 60926U 24155C 24274.40716739 .00004693 00000+0 32649-4 0 9995 2 60926 53.1485 51.2419 0001650 109.3548 250.7651 15.76734433 5942
UTC large
Height (km)
Speed (km/s)
/
Latitude / Longitude
Inclination (degrees)
Orbital Period (minutes)
Azimuth
Elevation
Range (km)
Doppler Factor

Next 0 passes for location: London (51.5072 / 0.1276)

Sorry there are no passes over London.